Wind_Speed
14 14 13 12 10 9 8 6 5 5 3 3 3 4 5 5 5 6 8 9 10 11 12 12 12 12 12 12 11 9 8 8 8 6 5 4 3 3 3 4 6 7 8 8
17 16 15 14 12 10 9 8 7 6 4 4 4 5 6 6 6 6 8 10 11 11 11 12 12 12 12 11 10 9 8 8 8 6 5 4 4 3 3 4 5 6 7 7
19 18 17 15 14 12 11 10 9 7 6 5 5 7 7 7 7 7 9 10 11 11 11 13 12 12 12 10 9 9 9 9 7 6 5 4 4 4 5 5 6 6 7 8
22 20 18 17 16 14 14 12 11 9 8 8 5 6 10 8 9 9 10 10 10 10 11 12 12 13 11 10 10 9 9 9 8 7 6 6 5 6 5 6 7 7 6 7
23 21 20 19 18 17 16 14 12 11 10 9 8 6 10 10 10 10 10 10 9 10 11 12 12 13 11 10 9 8 8 8 7 7 7 6 6 6 6 7 8 8 8 8
26 23 22 21 20 19 17 15 14 13 12 11 10 8 9 11 11 11 11 10 10 10 11 11 11 12 11 10 9 8 8 7 7 7 7 7 6 6 7 7 7 8 8 9
27 25 24 22 21 20 19 17 15 14 13 13 12 10 11 12 11 11 11 10 10 10 9 10 11 11 10 9 9 8 8 7 6 7 6 6 5 5 6 6 7 7 7 8
28 27 25 24 23 22 20 19 16 14 12 13 14 12 12 12 11 11 10 9 9 9 10 10 10 11 10 9 9 8 8 7 6 6 6 6 5 6 6 6 6 7 7 9
29 29 26 25 24 24 23 21 19 17 16 14 15 14 13 12 11 11 9 9 9 9 10 10 10 10 10 9 9 9 9 7 7 6 6 6 5 5 6 6 6 6 8 9
31 30 28 27 26 26 25 23 22 19 17 15 15 14 13 13 12 11 10 10 10 10 10 11 10 10 10 10 10 10 9 8 8 7 7 6 5 5 6 6 6 7 8 9
32 31 30 29 28 27 25 24 23 21 20 16 13 14 14 13 12 11 11 11 11 12 12 12 11 11 11 11 10 10 10 9 9 8 7 7 6 6 7 7 8 8 8 9
32 32 31 30 29 28 27 25 24 23 21 19 15 15 15 13 12 12 12 13 13 12 13 13 12 12 12 11 11 10 10 10 10 9 9 8 8 8 7 7 8 9 9 10
33 33 32 31 31 29 28 26 25 23 23 21 17 15 16 14 14 14 14 14 13 13 13 13 13 13 12 11 11 11 11 11 10 11 10 10 10 9 9 9 9 10 11 11
33 32 31 28 28 29 28 27 26 25 23 21 19 17 17 16 16 16 15 15 14 14 13 13 14 14 13 12 12 12 12 12 12 12 12 12 11 11 11 11 10 11 11 12
32 32 31 31 31 30 29 28 27 26 24 22 20 18 18 17 16 16 15 15 15 14 15 15 15 14 13 13 13 13 13 13 13 14 13 13 13 13 13 13 13 13 13 14
32 31 30 30 30 29 29 29 28 27 25 23 21 20 18 17 16 16 15 15 15 15 16 16 15 14 15 15 15 15 14 14 14 15 15 15 15 15 15 15 15 15 15 15
31 30 30 29 29 30 30 29 28 27 25 24 22 21 20 18 17 16 16 16 16 16 17 17 16 16 16 16 16 16 15 15 15 16 16 16 16 16 16 17 17 17 17 17
32 31 30 29 30 29 29 28 27 26 26 25 24 23 21 20 19 17 17 17 17 17 17 17 18 18 18 17 16 16 17 16 17 17 17 17 17 17 17 18 18 18 18 19
32 32 31 30 28 29 30 28 26 26 26 25 25 24 23 21 20 19 18 19 19 18 18 18 18 18 18 18 18 19 18 19 19 19 18 18 18 18 18 19 19 20 20 20
33 32 32 32 29 27 30 28 26 26 27 26 25 25 24 23 22 21 20 20 20 19 19 19 20 20 19 19 20 20 20 21 21 21 20 19 19 20 20 20 21 21 21 21
35 34 33 32 31 29 32 28 26 27 27 26 25 25 25 24 24 22 21 21 21 21 21 21 21 21 21 21 21 22 22 22 22 22 21 21 21 21 22 22 22 22 23 23
36 36 35 34 32 33 32 29 29 28 28 27 26 26 25 24 24 23 23 23 23 22 22 22 22 23 23 23 23 24 24 24 23 23 22 23 22 22 22 22 23 23 24 25
38 38 37 36 36 35 32 30 29 28 28 28 28 27 27 26 25 24 25 25 25 24 23 24 24 24 25 25 25 25 25 25 25 24 23 23 23 23 23 24 24 25 26 25
39 38 38 37 37 35 33 32 31 30 29 29 29 28 28 27 26 26 25 25 25 26 26 26 26 26 26 27 27 27 26 26 26 24 24 23 23 23 24 25 25 25 26 26
39 38 37 37 36 36 35 34 33 32 31 30 29 29 28 28 27 27 26 26 27 27 28 28 28 28 28 28 27 27 27 26 25 24 24 23 23 23 24 24 25 26 26 26
38 38 38 38 36 35 35 34 33 33 32 31 30 30 29 28 28 28 27 27 27 27 28 29 28 28 28 28 27 27 27 27 26 25 24 24 24 25 25 25 26 26 26 26
Wind_Direction
217 218 220 224 225 225 230 238 252 273 294 300 313 318 319 329 336 338 341 342 341 341 346 348 348 346 346 345 349 351 347 351 349 342 338 321 292 256 239 224 222 220 214 214
221 222 225 228 231 233 237 242 254 270 283 294 309 315 316 318 323 329 333 336 335 336 340 342 341 340 340 343 344 345 346 345 346 341 329 319 301 264 245 237 232 225 218 219
223 225 227 230 232 236 239 243 252 266 283 292 305 315 310 308 311 319 324 325 328 330 329 332 338 338 335 337 337 340 337 339 340 339 328 317 305 277 256 243 238 235 228 228
225 226 228 230 232 235 239 244 253 263 271 281 291 283 299 300 303 312 317 319 321 325 323 324 331 335 331 329 329 333 336 333 329 325 318 310 293 281 272 253 244 238 237 234
229 228 229 231 233 235 239 244 252 260 266 273 284 279 284 297 301 306 310 310 311 318 322 322 327 329 326 326 330 328 330 332 328 321 318 312 297 281 277 262 251 244 245 244
229 228 229 231 233 235 239 245 252 260 265 268 271 278 281 290 295 299 303 304 301 309 318 324 326 328 331 332 334 332 329 330 331 326 321 319 303 286 279 265 256 250 250 248
230 230 231 232 234 236 239 243 250 258 262 264 270 275 279 286 290 293 299 299 300 305 313 321 326 328 332 333 337 337 338 333 331 330 325 321 311 296 290 273 258 252 247 251
231 233 233 233 235 238 239 241 242 245 255 265 272 274 282 285 285 289 293 296 299 303 310 317 323 327 327 327 333 340 340 334 333 332 325 319 315 310 302 291 275 262 259 260
230 233 233 234 235 237 238 239 240 246 251 255 268 275 281 281 279 282 286 291 296 301 305 312 317 322 324 323 325 330 334 332 330 330 326 325 318 311 305 296 287 271 270 266
229 233 234 234 236 237 239 240 242 244 251 255 267 276 278 276 271 271 275 285 289 297 302 306 313 316 322 321 320 323 327 323 321 322 322 317 312 311 305 292 286 280 274 270
229 232 235 235 237 238 239 241 244 245 248 251 260 270 271 271 267 263 268 276 283 291 298 301 304 309 314 318 318 317 321 317 312 313 315 312 305 305 305 296 286 284 281 276
229 231 234 236 237 238 239 241 244 247 251 253 250 262 267 265 264 261 264 271 277 287 293 298 301 302 306 310 313 313 313 313 307 306 305 305 303 300 298 299 294 286 286 283
228 230 233 236 238 238 239 241 244 246 249 252 251 257 262 261 262 260 262 269 274 280 287 293 297 299 301 304 308 312 308 306 304 300 299 299 297 295 295 293 295 292 287 286
228 230 231 236 242 241 240 241 242 243 245 250 250 247 257 259 260 259 261 266 269 275 281 289 293 294 298 300 304 307 306 303 300 298 296 296 294 291 291 293 294 294 294 293
227 229 230 231 236 240 240 240 240 242 243 245 249 249 251 255 257 258 259 260 264 269 273 282 286 289 295 298 300 302 302 302 298 295 295 296 295 291 289 291 293 294 295 295
227 228 230 232 234 237 238 238 240 242 244 244 245 248 249 251 253 255 255 256 261 265 271 279 282 283 289 294 298 300 300 300 297 293 292 294 294 292 289 289 290 290 289 289
227 228 229 231 232 235 237 238 240 243 244 243 243 245 247 248 250 253 252 254 260 265 269 274 279 283 287 292 295 298 299 298 296 293 291 289 290 290 288 287 288 288 288 288
225 226 227 228 230 232 235 236 238 240 241 241 241 243 245 246 248 251 252 253 258 261 264 270 276 280 286 291 292 295 298 296 297 294 291 290 287 286 287 289 287 286 286 287
224 225 226 227 230 233 234 234 235 236 238 239 240 241 244 245 247 250 252 251 253 258 262 267 274 279 284 289 292 294 295 296 294 292 289 289 286 284 285 286 288 286 286 286
225 225 227 227 225 231 236 232 232 234 237 238 240 242 243 245 246 247 249 249 252 255 262 267 273 278 282 287 291 291 293 295 294 293 288 288 286 285 284 285 287 287 288 288
225 226 227 228 228 230 233 230 230 232 236 237 239 241 242 244 246 247 248 249 252 256 261 266 271 275 279 283 288 290 292 292 292 294 291 289 286 286 286 285 286 288 288 289
225 227 228 229 230 233 233 231 232 234 236 238 239 241 242 243 246 247 248 250 252 257 260 264 269 274 278 281 285 289 289 290 291 291 290 288 286 286 285 286 287 288 289 290
225 226 228 229 231 234 235 234 234 235 237 238 240 241 243 244 245 247 249 251 253 256 258 263 268 271 276 278 282 288 287 287 288 287 287 286 285 286 286 286 287 287 288 288
228 228 230 231 233 235 236 236 236 237 238 239 240 242 243 244 247 249 250 250 252 255 258 262 266 270 274 278 280 284 285 285 287 285 284 284 285 286 288 287 287 289 289 288
229 229 229 231 233 234 235 236 238 239 239 240 242 242 244 245 246 248 250 251 252 255 258 261 266 269 273 276 280 283 284 284 283 283 281 282 283 286 288 289 289 290 290 290
229 230 230 231 232 234 235 236 238 240 241 241 242 243 245 246 248 249 250 253 254 255 257 261 265 268 271 275 278 281 282 282 281 280 280 281 284 285 287 289 290 291 291 291
Height
5920 5923 5925 5927 5929 5931 5932 5933 5934 5934 5935 5935 5935 5935 5935 5934 5933 5931 5930 5928 5926 5924 5922 5920 5917 5915 5912 5910 5908 5906 5905 5903 5902 5901 5900 5899 5899 5899 5899 5899 5899 5899 5900 5901
5918 5920 5922 5924 5926 5928 5930 5931 5932 5933 5933 5934 5934 5934 5934 5933 5932 5931 5929 5928 5926 5924 5921 5919 5917 5914 5912 5910 5907 5906 5904 5903 5901 5900 5899 5898 5898 5898 5898 5898 5898 5898 5899 5899
5915 5918 5919 5922 5924 5926 5928 5929 5930 5931 5932 5933 5934 5934 5933 5932 5931 5930 5929 5927 5925 5923 5921 5918 5916 5914 5911 5909 5907 5905 5903 5902 5901 5899 5898 5897 5897 5897 5897 5897 5897 5897 5897 5898
5910 5913 5916 5919 5921 5923 5925 5927 5928 5929 5931 5932 5933 5935 5932 5930 5930 5929 5928 5926 5924 5922 5920 5918 5915 5913 5911 5908 5906 5904 5903 5901 5900 5899 5898 5897 5896 5896 5895 5895 5895 5896 5896 5897
5907 5910 5913 5916 5918 5920 5922 5924 5926 5927 5929 5930 5931 5932 5933 5929 5928 5927 5926 5924 5923 5921 5919 5917 5914 5912 5910 5907 5905 5903 5902 5900 5899 5897 5896 5895 5894 5894 5893 5893 5893 5894 5895 5895
5902 5906 5909 5912 5914 5917 5919 5922 5923 5925 5927 5928 5928 5929 5930 5927 5926 5925 5924 5922 5921 5920 5918 5916 5914 5911 5908 5906 5904 5902 5900 5899 5898 5896 5895 5894 5893 5892 5892 5891 5892 5892 5893 5893
5898 5902 5904 5908 5910 5913 5916 5919 5922 5923 5925 5926 5925 5926 5927 5925 5923 5922 5921 5920 5919 5918 5917 5915 5912 5910 5908 5906 5904 5902 5899 5898 5897 5896 5894 5893 5892 5891 5890 5889 5890 5890 5891 5891
5894 5897 5900 5904 5907 5909 5912 5916 5920 5922 5924 5924 5921 5922 5923 5921 5920 5920 5919 5918 5917 5916 5915 5914 5911 5909 5907 5905 5903 5901 5899 5898 5896 5895 5894 5892 5891 5890 5889 5888 5888 5888 5889 5889
5889 5892 5896 5899 5902 5905 5908 5911 5915 5917 5918 5920 5920 5919 5919 5918 5918 5917 5917 5916 5915 5915 5914 5912 5910 5908 5906 5904 5903 5901 5899 5897 5896 5894 5893 5891 5890 5889 5888 5887 5887 5886 5887 5887
5883 5887 5890 5893 5896 5900 5903 5906 5909 5912 5914 5916 5917 5916 5916 5915 5915 5915 5914 5914 5913 5913 5912 5911 5909 5907 5905 5903 5902 5900 5898 5897 5895 5894 5892 5891 5889 5888 5887 5886 5886 5885 5885 5885
5877 5882 5885 5888 5891 5895 5899 5902 5904 5907 5910 5913 5915 5916 5912 5912 5912 5912 5912 5912 5911 5911 5910 5909 5908 5906 5904 5902 5900 5899 5897 5895 5894 5893 5891 5890 5889 5888 5886 5885 5885 5884 5884 5883
5871 5876 5879 5883 5886 5889 5893 5896 5900 5903 5904 5907 5910 5914 5908 5908 5908 5909 5909 5909 5908 5908 5908 5906 5905 5904 5902 5900 5899 5897 5895 5894 5892 5891 5890 5889 5888 5887 5885 5884 5883 5883 5882 5881
5865 5869 5874 5877 5882 5884 5887 5891 5894 5897 5900 5901 5905 5909 5904 5905 5905 5905 5906 5905 5905 5905 5905 5904 5903 5901 5900 5898 5897 5895 5893 5892 5890 5889 5888 5887 5886 5885 5884 5883 5882 5881 5880 5879
5859 5863 5869 5874 5875 5878 5882 5885 5888 5891 5894 5897 5900 5902 5901 5901 5902 5902 5902 5902 5902 5902 5902 5901 5900 5899 5897 5896 5894 5893 5891 5890 5888 5887 5886 5885 5884 5883 5882 5881 5880 5879 5878 5877
5852 5857 5862 5866 5868 5871 5875 5879 5881 5885 5888 5892 5894 5896 5897 5897 5898 5898 5898 5899 5899 5899 5898 5898 5897 5896 5894 5893 5892 5890 5889 5887 5886 5885 5883 5882 5881 5880 5880 5879 5877 5876 5875 5874
5845 5850 5855 5859 5862 5865 5868 5872 5875 5879 5882 5885 5888 5891 5892 5892 5893 5894 5895 5895 5895 5895 5895 5894 5893 5893 5892 5890 5889 5887 5886 5884 5883 5882 5881 5879 5878 5877 5876 5875 5874 5873 5872 5871
5839 5844 5849 5853 5856 5859 5862 5866 5869 5873 5876 5880 5883 5886 5886 5888 5889 5890 5890 5891 5891 5891 5891 5891 5890 5889 5888 5887 5886 5884 5882 5881 5880 5879 5877 5876 5875 5874 5873 5872 5871 5869 5868 5867
5833 5838 5842 5847 5850 5853 5859 5860 5864 5867 5870 5873 5876 5879 5881 5882 5884 5885 5886 5886 5887 5887 5887 5887 5886 5885 5884 5884 5882 5881 5879 5877 5876 5875 5874 5872 5871 5870 5869 5868 5866 5865 5864 5862
5826 5831 5836 5840 5844 5847 5851 5854 5858 5861 5864 5867 5870 5873 5875 5877 5878 5880 5880 5881 5882 5882 5882 5882 5882 5881 5880 5879 5878 5877 5875 5873 5872 5870 5869 5868 5866 5865 5864 5863 5861 5860 5859 5857
5819 5824 5829 5833 5838 5842 5845 5849 5852 5856 5858 5861 5863 5866 5869 5871 5873 5874 5875 5876 5876 5877 5877 5877 5877 5876 5876 5875 5873 5872 5871 5869 5867 5865 5864 5863 5861 5860 5859 5857 5856 5855 5853 5852
5811 5816 5821 5826 5831 5835 5837 5842 5846 5851 5853 5855 5857 5860 5862 5864 5867 5868 5869 5870 5871 5871 5872 5872 5872 5871 5871 5870 5869 5867 5866 5864 5862 5860 5859 5857 5856 5855 5853 5852 5851 5849 5848 5846
5804 5809 5813 5818 5824 5829 5830 5835 5840 5842 5845 5848 5850 5853 5855 5857 5859 5861 5863 5864 5865 5865 5866 5866 5866 5866 5865 5864 5863 5862 5860 5859 5857 5855 5853 5852 5851 5849 5848 5846 5845 5844 5842 5840
5795 5801 5805 5811 5816 5818 5823 5827 5831 5835 5838 5841 5843 5846 5849 5851 5853 5854 5856 5857 5859 5859 5860 5860 5860 5860 5859 5858 5857 5856 5854 5853 5851 5849 5848 5846 5845 5843 5842 5841 5839 5838 5836 5834
5787 5792 5797 5802 5807 5811 5815 5819 5823 5827 5830 5833 5836 5839 5841 5844 5846 5848 5849 5851 5852 5853 5853 5854 5854 5854 5853 5852 5851 5850 5848 5847 5845 5843 5842 5840 5839 5837 5836 5834 5833 5831 5829 5827
5778 5784 5788 5793 5798 5803 5806 5811 5815 5819 5822 5826 5828 5831 5833 5836 5838 5840 5842 5844 5845 5846 5846 5847 5847 5847 5846 5845 5844 5843 5841 5840 5839 5837 5836 5834 5833 5831 5830 5828 5826 5824 5822 5820
5770 5775 5780 5784 5789 5794 5798 5803 5807 5810 5814 5817 5820 5823 5825 5828 5830 5832 5834 5836 5837 5838 5839 5839 5839 5839 5839 5838 5837 5836 5835 5834 5832 5831 5830 5828 5827 5825 5824 5822 5820 5817 5815 5814